When you browse on this site, cookies collect data to enhance your experience and personalize the content and advertising you see.
Visit our Privacy Policy to learn more. By continuing to use the site, you agree to this use of cookies and data.
  • In Italy
  • List of Countries
  • For 7 days
  • Water Temperature
  • Satellite Maps
  • Weather Map
  • Weather Widgets
  • user-avatar
    Login

    Hourly Weather La Massana

    Today, 11 December, Tuesday

    Time Temperature Precipitation Wind Pressure Humidity
    00:00 -3°C° 0 mm 2 mps 614 mmHg 65%
    01:00 -3°C° 0 mm 2 mps 613 mmHg 65%
    02:00 -3°C° 0 mm 2 mps 613 mmHg 66%
    03:00 -3°C° 0 mm 2 mps 612 mmHg 66%
    04:00 -1°C° 0 mm 1 mps 612 mmHg 65%
    05:00 -1°C° 0 mm 1 mps 612 mmHg 64%
    06:00 -3°C° 0 mm 2 mps 612 mmHg 61%
    07:00 0°C° 0 mm 1 mps 612 mmHg 58%
    08:00 +1°C° 0 mm 1 mps 612 mmHg 54%
    09:00 +3°C° 0 mm 1 mps 613 mmHg 51%
    10:00 +4°C° 0 mm 1 mps 613 mmHg 48%
    11:00 +5°C° 0 mm 1 mps 614 mmHg 46%
    12:00 +6°C° 0 mm 1 mps 614 mmHg 42%
    13:00 +6°C° 0 mm 1 mps 613 mmHg 46%
    14:00 +5°C° 0 mm 1 mps 613 mmHg 50%
    15:00 +5°C° 0 mm 1 mps 612 mmHg 54%
    16:00 +3°C° 0 mm 1 mps 611 mmHg 58%
    17:00 +2°C° 0 mm 1 mps 611 mmHg 63%
    18:00 0°C° 0 mm 1 mps 610 mmHg 67%
    19:00 0°C° 0 mm 1 mps 610 mmHg 66%
    20:00 0°C° 0 mm 1 mps 610 mmHg 64%
    21:00 0°C° 0 mm 1 mps 610 mmHg 63%
    22:00 0°C° 0 mm 1 mps 610 mmHg 62%
    23:00 0°C° 0 mm 1 mps 610 mmHg 61%

    Tomorrow, 12 December, Wednesday

    Time Temperature Precipitation Wind Pressure Humidity
    00:00 0°C° 0 mm 1 mps 610 mmHg 60%
    01:00 -2°C° 0 mm 2 mps 610 mmHg 60%
    02:00 -2°C° 0 mm 2 mps 610 mmHg 61%
    03:00 -2°C° 0 mm 2 mps 610 mmHg 61%
    04:00 -2°C° 0 mm 2 mps 610 mmHg 62%
    05:00 -3°C° 0 mm 2 mps 610 mmHg 63%
    06:00 -3°C° 0 mm 2 mps 610 mmHg 64%
    07:00 -2°C° 0 mm 2 mps 610 mmHg 61%
    08:00 -1°C° 0 mm 2 mps 611 mmHg 58%
    09:00 +1°C° 0 mm 2 mps 611 mmHg 54%
    10:00 +3°C° 0 mm 1 mps 612 mmHg 54%
    11:00 +5°C° 0 mm 1 mps 612 mmHg 53%
    12:00 +6°C° 0 mm 1 mps 612 mmHg 53%
    13:00 +5°C° 0 mm 1 mps 612 mmHg 58%
    14:00 +5°C° 0 mm 1 mps 611 mmHg 62%
    15:00 +4°C° 0 mm 1 mps 611 mmHg 67%
    16:00 +3°C° 0 mm 1 mps 610 mmHg 74%
    17:00 0°C° 0 mm 0 mps 609 mmHg 80%
    18:00 -1°C° 0 mm 0 mps 608 mmHg 87%
    19:00 -1°C° 0 mm 0 mps 608 mmHg 86%
    20:00 -1°C° 0 mm 1 mps 608 mmHg 85%
    21:00 -1°C° 0 mm 1 mps 608 mmHg 85%
    22:00 -1°C° 0 mm 1 mps 607 mmHg 83%
    23:00 -1°C° 0 mm 1 mps 607 mmHg 82%

    Day after tomorrow, 13 December, Thursday

    Time Temperature Precipitation Wind Pressure Humidity
    00:00 -1°C° 0 mm 1 mps 606 mmHg 80%
    01:00 -1°C° 0 mm 1 mps 606 mmHg 82%
    02:00 -1°C° 0 mm 1 mps 605 mmHg 83%
    03:00 -1°C° 0 mm 1 mps 605 mmHg 85%
    04:00 -1°C° 0.1 mm 1 mps 604 mmHg 84%
    05:00 0°C° 0.1 mm 1 mps 604 mmHg 84%
    06:00 0°C° 0.1 mm 1 mps 603 mmHg 83%
    07:00 0°C° 0.3 mm 1 mps 603 mmHg 83%
    08:00 0°C° 0.3 mm 1 mps 603 mmHg 83%
    09:00 0°C° 0.3 mm 1 mps 603 mmHg 83%
    10:00 +1°C° 0.2 mm 1 mps 603 mmHg 82%
    11:00 +1°C° 0.2 mm 1 mps 602 mmHg 80%
    12:00 +2°C° 0.2 mm 1 mps 602 mmHg 79%
    13:00 +1°C° 0.6 mm 1 mps 602 mmHg 82%
    14:00 -1°C° 0.6 mm 2 mps 602 mmHg 86%
    15:00 -1°C° 0.6 mm 3 mps 601 mmHg 89%
    16:00 -2°C° 0.4 mm 3 mps 601 mmHg 88%
    17:00 -2°C° 0.4 mm 3 mps 601 mmHg 87%
    18:00 -4°C° 0.4 mm 3 mps 601 mmHg 86%
    19:00 -4°C° 0.4 mm 4 mps 602 mmHg 86%
    20:00 -4°C° 0.4 mm 4 mps 602 mmHg 85%
    21:00 -4°C° 0.4 mm 4 mps 602 mmHg 84%
    22:00 -4°C° 0.4 mm 4 mps 603 mmHg 85%
    23:00 -4°C° 0.4 mm 4 mps 603 mmHg 85%

    14 December, Friday

    Time Temperature Precipitation Wind Pressure Humidity
    00:00 -4°C° 0.4 mm 4 mps 604 mmHg 86%
    01:00 -4°C° 0.3 mm 4 mps 604 mmHg 86%
    02:00 -4°C° 0.3 mm 4 mps 604 mmHg 86%
    03:00 -4°C° 0.3 mm 4 mps 605 mmHg 86%
    04:00 -4°C° 0.2 mm 4 mps 605 mmHg 86%
    05:00 -4°C° 0.2 mm 4 mps 605 mmHg 85%
    06:00 -4°C° 0.2 mm 4 mps 606 mmHg 85%
    07:00 -4°C° 0.1 mm 4 mps 606 mmHg 83%
    08:00 -3°C° 0.1 mm 4 mps 607 mmHg 81%
    09:00 -3°C° 0.1 mm 4 mps 608 mmHg 79%
    10:00 -2°C° 0 mm 4 mps 608 mmHg 76%
    11:00 -2°C° 0 mm 4 mps 609 mmHg 74%
    12:00 -1°C° 0 mm 4 mps 609 mmHg 71%
    13:00 -1°C° 0 mm 4 mps 609 mmHg 71%
    14:00 -1°C° 0 mm 4 mps 610 mmHg 72%
    15:00 0°C° 0 mm 3 mps 610 mmHg 72%
    16:00 -1°C° 0 mm 3 mps 610 mmHg 75%
    17:00 -2°C° 0 mm 3 mps 610 mmHg 77%
    18:00 -4°C° 0 mm 3 mps 610 mmHg 79%
    19:00 -4°C° 0 mm 3 mps 610 mmHg 80%
    20:00 -5°C° 0 mm 3 mps 610 mmHg 80%
    21:00 -5°C° 0 mm 3 mps 611 mmHg 81%
    22:00 -5°C° 0 mm 3 mps 611 mmHg 81%
    23:00 -5°C° 0 mm 3 mps 611 mmHg 81%

    15 December, Saturday

    Time Temperature Precipitation Wind Pressure Humidity
    00:00 -5°C° 0 mm 2 mps 610 mmHg 81%
    01:00 -5°C° 0 mm 2 mps 610 mmHg 80%
    02:00 -5°C° 0 mm 2 mps 610 mmHg 79%
    03:00 -6°C° 0 mm 3 mps 610 mmHg 77%
    04:00 -6°C° 0 mm 3 mps 610 mmHg 73%
    05:00 -6°C° 0 mm 3 mps 611 mmHg 69%
    06:00 -6°C° 0 mm 3 mps 611 mmHg 65%
    07:00 -4°C° 0 mm 2 mps 612 mmHg 63%
    08:00 -2°C° 0 mm 2 mps 613 mmHg 61%
    09:00 -1°C° 0 mm 2 mps 613 mmHg 59%
    10:00 +2°C° 0 mm 2 mps 614 mmHg 58%
    11:00 +4°C° 0 mm 2 mps 615 mmHg 58%
    12:00 +6°C° 0 mm 2 mps 615 mmHg 57%
    13:00 +5°C° 0 mm 2 mps 615 mmHg 62%
    14:00 +6°C° 0 mm 1 mps 615 mmHg 66%
    15:00 +6°C° 0 mm 1 mps 614 mmHg 71%
    16:00 +5°C° 0 mm 1 mps 614 mmHg 75%
    17:00 +3°C° 0 mm 1 mps 614 mmHg 78%
    18:00 +2°C° 0 mm 1 mps 613 mmHg 81%
    19:00 +2°C° 0 mm 1 mps 613 mmHg 80%
    20:00 +2°C° 0 mm 1 mps 614 mmHg 79%
    21:00 +3°C° 0 mm 1 mps 614 mmHg 78%
    22:00 +3°C° 0 mm 1 mps 614 mmHg 78%
    23:00 +2°C° 0 mm 1 mps 614 mmHg 78%

    16 December, Sunday

    Time Temperature Precipitation Wind Pressure Humidity
    00:00 +2°C° 0 mm 1 mps 614 mmHg 78%
    01:00 +2°C° 0 mm 1 mps 613 mmHg 78%
    02:00 +2°C° 0 mm 1 mps 613 mmHg 78%
    03:00 +2°C° 0 mm 1 mps 613 mmHg 78%
    04:00 +2°C° 0 mm 1 mps 613 mmHg 78%
    05:00 +2°C° 0 mm 1 mps 613 mmHg 78%
    06:00 +2°C° 0 mm 1 mps 613 mmHg 79%
    07:00 +3°C° 0 mm 1 mps 613 mmHg 76%
    08:00 +4°C° 0 mm 1 mps 614 mmHg 74%
    09:00 +5°C° 0 mm 1 mps 615 mmHg 71%
    10:00 +6°C° 0 mm 1 mps 615 mmHg 66%
    11:00 +8°C° 0 mm 1 mps 615 mmHg 61%
    12:00 +8°C° 0 mm 2 mps 616 mmHg 56%
    13:00 +7°C° 0 mm 2 mps 615 mmHg 58%
    14:00 +7°C° 0 mm 2 mps 615 mmHg 60%
    15:00 +6°C° 0 mm 2 mps 614 mmHg 62%
    16:00 +5°C° 0 mm 2 mps 614 mmHg 63%
    17:00 +3°C° 0 mm 2 mps 613 mmHg 64%
    18:00 +2°C° 0 mm 2 mps 612 mmHg 64%
    19:00 +2°C° 0 mm 2 mps 612 mmHg 67%
    20:00 +1°C° 0 mm 2 mps 612 mmHg 69%
    21:00 +1°C° 0 mm 2 mps 613 mmHg 71%
    22:00 +1°C° 0 mm 2 mps 613 mmHg 74%
    23:00 +2°C° 0 mm 1 mps 613 mmHg 76%
    Show more